Tiempo atmosférico en la estación meteorológica de Oliva, València/Valencia (5 m.)



Fecha
DESCASC
Temp. máxima en grados centígrados (hora)
DESCASC
Temp. mínima en grados centígrados (hora)
DESCASC
Temp. media en grados centígrados
DESCASC
Racha de viento máxima en m/sg (hora)
DESCASC
Velocidad máxima media en intervalos de 10 minutos(hora)
DESCASC
Precipitaciones diarias en mm
DESCASC
Precipitaciones de 00:00 a 06:00 en mm
DESCASC
Precipitaciones de 06:00 a 12:00 en mm
DESCASC
Precipitaciones de 12:00 a 18:00 en mm
DESCASC
Precipitaciones de 18:00 a 24:00 en mm
DESCASC
23-06-2019 25.6 (14:50) 17.9 (07:10) 21.8 9.72 (14:20) 4.17 (20:00) 0 0 0 0 0
22-06-2019 25.1 (21:10) 17.9 (04:40) 21.5 8.61 (19:20) 4.44 (19:10) 0 0 0 0 0
21-06-2019 -- (--) -- (--) -- -- (--) -- (--) -- -- 0 0 0
20-06-2019 -- (--) -- (--) -- -- (--) -- (--) -- 0 -- -- --
19-06-2019 -- (--) -- (--) -- -- (--) -- (--) -- 0 -- -- 0
18-06-2019 33.2 (17:00) 16.6 (00:00) 24.9 11.11 (18:40) 6.39 (17:50) 0 0 0 0 0
17-06-2019 32.2 (17:50) 14.4 (00:00) 23.3 9.17 (14:50) 5 (15:00) 0 0 0 0 0
16-06-2019 23.5 (14:30) 17.8 (00:00) 20.6 7.5 (00:20) 3.33 (00:40) 0 0 0 0 0
15-06-2019 28.2 (12:30) 20.6 (00:00) 24.4 9.17 (17:40) 5 (17:50) 0 0 0 0 0
14-06-2019 30.8 (19:00) 15.7 (00:00) 23.2 8.89 (15:50) 4.72 (15:50) 0 0 0 0 0
13-06-2019 -- (--) -- (--) -- 6.67 (00:50) 3.33 (00:50) 0 0 0 0 0
12-06-2019 21.4 (12:50) 12.2 (00:00) 16.8 8.33 (19:40) 5 (20:00) 0 0 0 0 0
11-06-2019 23.2 (11:00) 16.6 (00:00) 19.9 11.11 (17:10) 6.39 (16:40) 0 0 0 0 0
10-06-2019 24.6 (20:50) 14.6 (00:00) 19.6 10.28 (18:10) 6.11 (18:20) 0 0 0 0 0
09-06-2019 24.7 (20:30) 16.5 (00:00) 20.6 6.94 (05:00) 3.33 (23:40) 0 0 0 0 0
08-06-2019 23.1 (11:50) 17.2 (00:00) 20.2 7.78 (01:10) 3.89 (01:10) 0 0 0 0 0
07-06-2019 26.7 (18:30) 15.9 (00:00) 21.3 7.22 (15:30) 4.17 (15:40) 0 0 0 0 0
06-06-2019 23.7 (17:40) 13.2 (00:00) 18.5 11.94 (19:00) 6.67 (19:00) 0 0 0 0 0
05-06-2019 29.3 (17:10) 16 (00:00) 22.6 15.28 (11:20) 6.67 (11:50) 0 0 0 0 0
04-06-2019 30.3 (19:30) 15.3 (00:00) 22.8 14.17 (21:10) 4.44 (18:40) 0 0 0 0 0
03-06-2019 30.1 (16:30) 14.6 (00:00) 22.4 8.33 (17:20) 4.72 (17:20) 0 0 0 0 0
02-06-2019 28.4 (19:10) 12 (00:00) 20.2 8.89 (15:20) 5 (14:00) 0 0 0 0 0
01-06-2019 24.8 (19:20) 13.6 (00:00) 19.2 9.72 (15:00) 5 (14:30) 0 0 0 0 0
31-05-2019 24.9 (19:10) 12.6 (00:00) 18.8 9.44 (15:50) 5.28 (15:50) 0 0 0 0 0
30-05-2019 25.4 (16:50) 11 (00:00) 18.2 8.33 (14:10) 4.72 (18:40) 0 0 0 0 0
29-05-2019 21.7 (12:40) 12.5 (00:00) 17.1 6.39 (18:50) 3.33 (09:50) 0 0 0 0 0
28-05-2019 21.9 (16:10) 15 (00:00) 18.4 8.33 (17:30) 4.72 (17:20) 0 0 0 0 0
27-05-2019 26.5 (18:00) 12.4 (00:00) 19.4 6.67 (16:00) 3.89 (15:50) 0 0 0 0 0
26-05-2019 21.2 (14:30) 12.2 (00:00) 16.7 6.67 (18:10) 3.89 (15:20) 0 0 0 0 0
25-05-2019 21.2 (17:30) 15 (00:00) 18.1 8.61 (11:40) 4.72 (11:40) 1.4 0.6 0.8 0 0

Gráficas

Temp. máximas Temp. mínimas Temp. medias Precipitaciones Rachas de viento máximas Velocidades máximas media en intervalos de 10 minutos

Datos horarios

Fecha y hora oficial Temperatura (ºC) Velocidad del viento (km/h) Dirección del viento Racha (km/h) Dirección de racha Precipitación (mm) Presión (hPa) Tendencia (hPa) Humedad (%)
2019-06-23 23:00:00 23.1 4 Sudeste 13 Este 0 -- -- --
2019-06-23 22:00:00 23.3 9 Sudeste 23 Este 0 -- -- --
2019-06-23 21:00:00 23.3 14 Este 26 Este 0 -- -- --
2019-06-23 20:00:00 23.9 15 Este 24 Este 0 -- -- --
2019-06-23 19:00:00 24.2 10 Este 23 Este 0 -- -- --
2019-06-23 18:00:00 24.6 9 Este 22 Sudeste 0 -- -- --
2019-06-23 17:00:00 25.1 11 Este 23 Este 0 -- -- --
2019-06-23 16:00:00 24.8 12 Este 22 Sudeste 0 -- -- --
2019-06-23 15:00:00 25.1 11 Este 35 Este 0 -- -- --
2019-06-23 14:00:00 24.6 10 Este 18 Este 0 -- -- --
2019-06-23 13:00:00 24.4 10 Este 18 Este 0 -- -- --
2019-06-23 12:00:00 23.6 9 Este 13 Este 0 -- -- --
2019-06-23 11:00:00 23.3 7 Nordeste 10 Nordeste 0 -- -- --
2019-06-23 10:00:00 23.4 5 Nordeste 9 Nordeste 0 -- -- --
2019-06-23 09:00:00 22.2 4 Norte 9 Norte 0 -- -- --
2019-06-23 08:00:00 19.7 3 Oeste 7 Noroeste 0 -- -- --
2019-06-23 07:00:00 18.1 3 Oeste 6 Noroeste 0 -- -- --
2019-06-23 06:00:00 19 0 Calma 7 Noroeste 0 -- -- --
2019-06-23 05:00:00 19 4 Noroeste 8 Noroeste 0 -- -- --
2019-06-23 04:00:00 19.5 4 Oeste 12 Noroeste 0 -- -- --
2019-06-23 03:00:00 19.4 5 Oeste 10 Noroeste 0 -- -- --
2019-06-23 02:00:00 19.6 5 Oeste 9 Noroeste 0 -- -- --
2019-06-23 01:00:00 20.7 3 Noroeste 10 Noroeste 0 -- -- --
2019-06-23 00:00:00 21.7 4 Noroeste 13 Sudeste 0 -- -- --
2019-06-22 23:00:00 23.9 8 Sudeste 19 Sudeste 0 -- -- --
2019-06-22 22:00:00 24.8 10 Sudeste 22 Sudeste 0 -- -- --
2019-06-22 21:00:00 24.8 12 Sudeste 26 Este 0 -- -- --
2019-06-22 20:00:00 23.3 13 Este 31 Sudeste 0 -- -- --
2019-06-22 19:00:00 23.7 14 Este 29 Este 0 -- -- --
2019-06-22 18:00:00 24 8 Este 18 Este 0 -- -- --
2019-06-22 17:00:00 24.2 9 Este 17 Este 0 -- -- --
2019-06-22 16:00:00 24.2 10 Este 21 Este 0 -- -- --
2019-06-22 15:00:00 23.4 8 Este 18 Este 0 -- -- --
2019-06-22 14:00:00 24.4 8 Este 16 Nordeste 0 -- -- --
2019-06-22 13:00:00 23.5 8 Nordeste 15 Nordeste 0 -- -- --
2019-06-22 12:00:00 23.3 8 Nordeste 15 Nordeste 0 -- -- --
2019-06-22 11:00:00 23.3 7 Nordeste 15 Norte 0 -- -- --
2019-06-22 10:00:00 22.5 7 Norte 12 Norte 0 -- -- --
2019-06-22 09:00:00 21.6 4 Oeste 9 Noroeste 0 -- -- --
2019-06-22 08:00:00 19.6 4 Oeste 8 Oeste 0 -- -- --
2019-06-22 07:00:00 18 4 Noroeste 7 Oeste 0 -- -- --
2019-06-22 06:00:00 18.1 0 Calma 6 Noroeste 0 -- -- --
2019-06-22 05:00:00 18.2 0 Calma 5 Noroeste 0 -- -- --
2019-06-22 04:00:00 18 4 Noroeste 6 Oeste 0 -- -- --
2019-06-22 03:00:00 18.4 3 Oeste 9 Noroeste 0 -- -- --
2019-06-22 02:00:00 18.7 5 Oeste 9 Noroeste 0 -- -- --
2019-06-22 01:00:00 19.3 4 Noroeste 11 Noroeste 0 -- -- --
2019-06-22 00:00:00 19.8 5 Noroeste 8 Noroeste 0 -- -- --
2019-06-21 23:00:00 20.7 3 Oeste 10 Norte 0 -- -- --
2019-06-21 22:00:00 21.5 3 Noroeste 15 Norte 0 -- -- --
2019-06-21 21:00:00 22.3 5 Norte 10 Norte 0 -- -- --
2019-06-21 20:00:00 22.5 6 Nordeste 11 Nordeste 0 -- -- --
2019-06-21 19:00:00 23.1 7 Nordeste 24 Nordeste 0 -- -- --
2019-06-21 18:00:00 23.5 9 Nordeste 18 Nordeste 0 -- -- --
2019-06-21 17:00:00 23.5 9 Nordeste 13 Nordeste 0 -- -- --
2019-06-21 16:00:00 24 8 Nordeste 13 Nordeste 0 -- -- --
2019-06-21 15:00:00 24.1 6 Nordeste 14 Norte 0 -- -- --
2019-06-21 14:00:00 23.6 6 Nordeste 18 Norte 0 -- -- --
2019-06-21 13:00:00 22.8 10 Norte 17 Nordeste 0 -- -- --
2019-06-21 12:00:00 23.9 9 Norte 26 Nordeste 0 -- -- --
2019-06-21 11:00:00 23.6 9 Norte 19 Norte 0 -- -- --
2019-06-21 10:00:00 23.1 10 Norte 17 Norte 0 -- -- --
2019-06-21 09:00:00 22.6 6 Noroeste 16 Noroeste 0 -- -- --
2019-06-21 08:00:00 20.6 5 Noroeste 8 Oeste 0 -- -- --
2019-06-21 07:00:00 19.8 4 Oeste 7 Oeste 0 -- -- --
2019-06-21 06:00:00 -- 3 Oeste 6 Oeste 0 -- -- --
2019-06-21 05:00:00 -- -- -- -- -- -- -- -- --
2019-06-21 04:00:00 -- 7 Oeste 9 Oeste 0 -- -- --
2019-06-21 03:00:00 -- 2 Noroeste 6 Noroeste 0 -- -- --
2019-06-21 02:00:00 -- -- -- -- -- -- -- -- --
2019-06-21 01:00:00 -- -- -- -- -- -- -- -- --
2019-06-21 00:00:00 -- -- -- -- -- -- -- -- --
2019-06-20 23:00:00 -- -- -- -- -- -- -- -- --
2019-06-20 22:00:00 -- -- -- -- -- -- -- -- --
2019-06-20 21:00:00 -- -- -- -- -- -- -- -- --
2019-06-20 20:00:00 -- -- -- -- -- -- -- -- --
2019-06-20 19:00:00 -- -- -- -- -- -- -- -- --
2019-06-20 18:00:00 -- -- -- -- -- -- -- -- --
2019-06-20 17:00:00 -- -- -- -- -- -- -- -- --
2019-06-20 16:00:00 -- -- -- -- -- -- -- -- --
2019-06-20 15:00:00 -- -- -- -- -- -- -- -- --
2019-06-20 14:00:00 -- -- -- -- -- -- -- -- --
2019-06-20 13:00:00 24.2 8 Nordeste 20 Nordeste 0 -- -- --
2019-06-20 12:00:00 -- -- -- -- -- -- -- -- --
2019-06-20 11:00:00 -- -- -- -- -- -- -- -- --
2019-06-20 10:00:00 22.7 10 Norte 19 Norte 0 -- -- --
2019-06-20 09:00:00 21.7 10 Noroeste 22 Norte 0 -- -- --
2019-06-20 08:00:00 21.3 8 Noroeste 19 Noroeste 0 -- -- --
2019-06-20 07:00:00 18.4 4 Noroeste 10 Noroeste 0 -- -- --
2019-06-20 06:00:00 18 5 Oeste 9 Noroeste 0 -- -- --
2019-06-20 05:00:00 19.2 4 Noroeste 8 Noroeste 0 -- -- --
2019-06-20 04:00:00 19.9 4 Oeste 12 Noroeste 0 -- -- --
2019-06-20 03:00:00 21.4 5 Noroeste 20 Noroeste 0 -- -- --
2019-06-20 02:00:00 22 7 Noroeste 18 Norte 0 -- -- --
2019-06-20 01:00:00 22.3 8 Noroeste 26 Norte 0 -- -- --
2019-06-20 00:00:00 23 9 Norte 22 Norte 0 -- -- --
2019-06-19 23:00:00 23.8 0 Calma 4 Nordeste 0 -- -- --
2019-06-19 22:00:00 26.3 3 Sur 9 Sur 0 -- -- --
2019-06-19 21:00:00 28.2 10 Sudeste 22 Sudeste 0 -- -- --
2019-06-19 20:00:00 28.8 8 Sudeste 22 Sudeste 0 -- -- --
2019-06-19 19:00:00 28.4 12 Sudeste 28 Este 0 -- -- --
2019-06-19 18:00:00 28.3 15 Este 28 Este 0 -- -- --
2019-06-19 17:00:00 27.5 14 Este 28 Este 0 -- -- --
2019-06-19 16:00:00 27.6 11 Este 24 Este 0 -- -- --
2019-06-19 15:00:00 25.4 8 Este 17 Este 0 -- -- --
2019-06-19 14:00:00 23.4 9 Este 18 Este 0 -- -- --
2019-06-19 13:00:00 23 9 Este -- -- -- -- -- --
2019-06-19 12:00:00 -- 8 Este -- -- -- -- -- --
2019-06-19 11:00:00 -- -- -- 14 Este 0 -- -- --
2019-06-19 10:00:00 23 7 Este 18 Este 0 -- -- --
2019-06-19 09:00:00 25.5 7 Noroeste 22 Noroeste 0 -- -- --
2019-06-19 08:00:00 22 8 Oeste 22 Oeste 0 -- -- --
2019-06-19 07:00:00 17.3 0 Calma 6 Sur 0 -- -- --
2019-06-19 06:00:00 17.7 0 Calma 6 Sur 0 -- -- --
2019-06-19 05:00:00 18.3 3 Sur 6 Sur 0 -- -- --
2019-06-19 04:00:00 19.1 2 Sur 5 Sur 0 -- -- --
2019-06-19 03:00:00 19.9 0 Calma 6 Sudeste 0 -- -- --
2019-06-19 02:00:00 20.3 3 Sur 11 Sur 0 -- -- --
2019-06-19 01:00:00 20.9 6 Sur 14 Sur 0 -- -- --
2019-06-19 00:00:00 22.2 6 Sudeste 23 Nordeste 0 -- -- --
2019-06-18 23:00:00 22.2 12 Nordeste 23 Norte 0 -- -- --
2019-06-18 22:00:00 23.6 12 Norte 20 Norte 0 -- -- --
2019-06-18 21:00:00 28.8 10 Sudeste 28 Sur 0 -- -- --
2019-06-18 20:00:00 30.6 16 Sudeste 31 Sur 0 -- -- --
2019-06-18 19:00:00 31.2 14 Sudeste 40 Sudeste 0 -- -- --
2019-06-18 18:00:00 30.7 21 Sudeste 34 Sudeste 0 -- -- --
2019-06-18 17:00:00 32.9 15 Sur 29 Sudeste 0 -- -- --
2019-06-18 16:00:00 29 13 Sudeste 31 Este 0 -- -- --
2019-06-18 15:00:00 27.7 17 Sudeste 34 Sudeste 0 -- -- --
2019-06-18 14:00:00 26.8 13 Este 22 Este 0 -- -- --
2019-06-18 13:00:00 26 6 Nordeste 12 Sudeste 0 -- -- --
2019-06-18 12:00:00 24.5 7 Nordeste 12 Este 0 -- -- --
2019-06-18 11:00:00 23.1 6 Nordeste 12 Nordeste 0 -- -- --
2019-06-18 10:00:00 22.9 6 Este 12 Este 0 -- -- --
2019-06-18 09:00:00 22.6 3 Sudeste 6 Este 0 -- -- --
2019-06-18 08:00:00 19 2 Oeste 5 Sur 0 -- -- --
2019-06-18 07:00:00 16.7 0 Calma 6 Oeste 0 -- -- --
2019-06-18 06:00:00 17.3 3 Sur 7 Sur 0 -- -- --
2019-06-18 05:00:00 17.7 4 Sur 6 Sur 0 -- -- --
2019-06-18 04:00:00 18.1 0 Calma 9 Noroeste 0 -- -- --
2019-06-18 03:00:00 19.1 2 Noroeste 5 Norte 0 -- -- --
2019-06-18 02:00:00 20.1 2 Sur 8 Sur 0 -- -- --
2019-06-18 01:00:00 21.2 0 Calma 14 Este 0 -- -- --
2019-06-18 00:00:00 22.2 5 Sudeste 17 Norte 0 -- -- --
2019-06-17 23:00:00 22.4 8 Norte 20 Noroeste 0 -- -- --
2019-06-17 22:00:00 25.3 2 Sudoeste 23 Sur 0 -- -- --
2019-06-17 21:00:00 28.1 13 Sur 26 Sur 0 -- -- --
2019-06-17 20:00:00 30.3 12 Sur 28 Sur 0 -- -- --
2019-06-17 19:00:00 31.6 14 Sur 29 Sur 0 -- -- --
2019-06-17 18:00:00 32 14 Sur 29 Sudeste 0 -- -- --
2019-06-17 17:00:00 30 14 Sudeste 31 Sudeste 0 -- -- --
2019-06-17 16:00:00 29.2 17 Sudeste 32 Sudeste 0 -- -- --
2019-06-17 15:00:00 29.4 18 Sudeste 33 Sudeste 0 -- -- --
2019-06-17 14:00:00 26.4 4 Nordeste 11 Nordeste 0 -- -- --
2019-06-17 13:00:00 24 6 Nordeste 17 Este 0 -- -- --
2019-06-17 12:00:00 23.7 9 Este 18 Este 0 -- -- --
2019-06-17 11:00:00 22.9 8 Este 13 Este 0 -- -- --
2019-06-17 10:00:00 22 5 Este 10 Este 0 -- -- --
2019-06-17 09:00:00 21.3 5 Sudeste 8 Este 0 -- -- --
2019-06-17 08:00:00 17.1 0 Calma 5 Oeste 0 -- -- --
2019-06-17 07:00:00 14.4 0 Calma 4 Sur 0 -- -- --
2019-06-17 06:00:00 15.4 0 Calma 4 Sur 0 -- -- --
2019-06-17 05:00:00 15.9 0 Calma 3 Noroeste 0 -- -- --
2019-06-17 04:00:00 16.4 0 Calma 5 Noroeste 0 -- -- --
2019-06-17 03:00:00 16.9 0 Calma 5 Oeste 0 -- -- --
2019-06-17 02:00:00 17.6 0 Calma 4 Oeste 0 -- -- --
2019-06-17 01:00:00 18.6 0 Calma 5 Sudeste 0 -- -- --
2019-06-17 00:00:00 19.7 0 Calma 8 Nordeste 0 -- -- --
2019-06-16 23:00:00 20.1 2 Este 12 Este 0 -- -- --
2019-06-16 22:00:00 20.5 5 Este 12 Sudeste 0 -- -- --
2019-06-16 21:00:00 20.8 7 Este 14 Este 0 -- -- --
2019-06-16 20:00:00 21.4 7 Sudeste 14 Sudeste 0 -- -- --
2019-06-16 19:00:00 21.2 4 Este 14 Este 0 -- -- --
2019-06-16 18:00:00 21.6 5 Este 13 Este 0 -- -- --
2019-06-16 17:00:00 22 6 Este 14 Este 0 -- -- --
2019-06-16 16:00:00 22.6 7 Este 14 Nordeste 0 -- -- --
2019-06-16 15:00:00 22.7 7 Nordeste 14 Nordeste 0 -- -- --
2019-06-16 14:00:00 23 6 Nordeste 17 Norte 0 -- -- --
2019-06-16 13:00:00 22 8 Nordeste 18 Norte 0 -- -- --
2019-06-16 12:00:00 21.8 10 Norte 18 Norte 0 -- -- --
2019-06-16 11:00:00 22.4 10 Norte 19 Norte 0 -- -- --
2019-06-16 10:00:00 22 8 Norte 14 Norte 0 -- -- --
2019-06-16 09:00:00 21.3 5 Norte 14 Norte 0 -- -- --
2019-06-16 08:00:00 19.5 4 Oeste 8 Noroeste 0 -- -- --
2019-06-16 07:00:00 18 4 Oeste 9 Noroeste 0 -- -- --
2019-06-16 06:00:00 17.9 5 Oeste 9 Noroeste 0 -- -- --
2019-06-16 05:00:00 17.8 4 Oeste 14 Noroeste 0 -- -- --
2019-06-16 04:00:00 18.3 8 Noroeste 19 Noroeste 0 -- -- --
2019-06-16 03:00:00 18.7 9 Noroeste 19 Noroeste 0 -- -- --
2019-06-16 02:00:00 19.4 7 Noroeste 20 Norte 0 -- -- --
2019-06-16 01:00:00 20.6 10 Noroeste 27 Noroeste 0 -- -- --
2019-06-16 00:00:00 20.9 11 Noroeste 27 Norte 0 -- -- --
2019-06-15 23:00:00 22.2 2 Nordeste 8 Sur 0 -- -- --
2019-06-15 22:00:00 23.8 5 Sur 10 Sur 0 -- -- --
2019-06-15 21:00:00 26.3 7 Sur 19 Sudeste 0 -- -- --
2019-06-15 20:00:00 26.6 11 Sudeste 22 Sudeste 0 -- -- --
2019-06-15 19:00:00 27 14 Sudeste 32 Este 0 -- -- --
2019-06-15 18:00:00 24.1 18 Este 33 Este 0 -- -- --
2019-06-15 17:00:00 25.3 17 Este 31 Este 0 -- -- --
2019-06-15 16:00:00 25.7 15 Este 24 Sudeste 0 -- -- --
2019-06-15 15:00:00 25.6 13 Este 23 Este 0 -- -- --
2019-06-15 14:00:00 25.8 11 Sudeste 22 Este 0 -- -- --
2019-06-15 13:00:00 27.3 8 Nordeste 23 Noroeste 0 -- -- --
2019-06-15 12:00:00 27.1 12 Noroeste 27 Oeste 0 -- -- --
2019-06-15 11:00:00 26 9 Oeste 26 Oeste 0 -- -- --
2019-06-15 10:00:00 24.4 12 Oeste 30 Noroeste 0 -- -- --
2019-06-15 09:00:00 23 13 Oeste 25 Noroeste 0 -- -- --
2019-06-15 08:00:00 21.5 9 Oeste 26 Oeste 0 -- -- --
2019-06-15 07:00:00 20.7 11 Oeste 26 Oeste 0 -- -- --
2019-06-15 06:00:00 21.2 12 Oeste 28 Noroeste 0 -- -- --
2019-06-15 05:00:00 22.1 13 Oeste 31 Oeste 0 -- -- --
2019-06-15 04:00:00 22.9 10 Oeste 30 Noroeste 0 -- -- --
2019-06-15 03:00:00 23.9 14 Noroeste 26 Oeste 0 -- -- --
2019-06-15 02:00:00 24.1 11 Noroeste 23 Noroeste 0 -- -- --
2019-06-15 01:00:00 24.5 9 Noroeste 19 Noroeste 0 -- -- --
2019-06-15 00:00:00 24.7 8 Noroeste 13 Noroeste 0 -- -- --
2019-06-14 23:00:00 24.6 0 Calma 6 Oeste 0 -- -- --
2019-06-14 22:00:00 26.4 0 Calma 9 Sudeste 0 -- -- --
2019-06-14 21:00:00 29.1 8 Sur 20 Sur 0 -- -- --
2019-06-14 20:00:00 29.2 11 Sudeste 23 Sudeste 0 -- -- --
2019-06-14 19:00:00 30.7 12 Sudeste 25 Sudeste 0 -- -- --
2019-06-14 18:00:00 28.3 9 Sudeste 22 Sudeste 0 -- -- --
2019-06-14 17:00:00 28.4 10 Sudeste 30 Sudeste 0 -- -- --
2019-06-14 16:00:00 28.1 15 Sudeste 32 Sudeste 0 -- -- --
2019-06-14 15:00:00 25.8 9 Este 25 Sudeste 0 -- -- --
2019-06-14 14:00:00 25 12 Este 21 Sudeste 0 -- -- --
2019-06-14 13:00:00 25.4 11 Sudeste 19 Este 0 -- -- --
2019-06-14 12:00:00 22.6 9 Sudeste 16 Sudeste 0 -- -- --
2019-06-14 11:00:00 22.9 6 Sudeste 12 Sudeste 0 -- -- --
2019-06-14 10:00:00 23.3 4 Noroeste 14 Noroeste 0 -- -- --
2019-06-14 09:00:00 19.5 5 Oeste 11 Noroeste 0 -- -- --
2019-06-14 08:00:00 16.8 5 Noroeste 10 Oeste 0 -- -- --
2019-06-14 07:00:00 16.2 4 Sur 7 Sur 0 -- -- --
2019-06-14 06:00:00 16.3 2 Oeste 10 Noroeste 0 -- -- --
2019-06-14 05:00:00 16.4 0 Calma 7 Oeste 0 -- -- --
2019-06-14 04:00:00 16.6 2 Oeste 14 Oeste 0 -- -- --
2019-06-14 03:00:00 16 5 Oeste 13 Noroeste 0 -- -- --
2019-06-14 02:00:00 16 6 Oeste 13 Noroeste 0 -- -- --
2019-06-14 01:00:00 16.5 7 Noroeste 11 Oeste 0 -- -- --
2019-06-14 00:00:00 16.7 6 Oeste 9 Noroeste 0 -- -- --
2019-06-13 23:00:00 17.8 3 Noroeste 10 Norte 0 -- -- --
2019-06-13 22:00:00 19.5 4 Noroeste 15 Norte 0 -- -- --
2019-06-13 21:00:00 20.7 5 Noroeste 13 Norte 0 -- -- --
2019-06-13 20:00:00 21.4 7 Norte 15 Norte 0 -- -- --
2019-06-13 19:00:00 21.6 7 Norte 17 Nordeste 0 -- -- --
2019-06-13 18:00:00 21.7 6 Norte 15 Nordeste 0 -- -- --
2019-06-13 17:00:00 21.8 9 Norte 18 Nordeste 0 -- -- --
2019-06-13 16:00:00 22.3 9 Nordeste 19 Nordeste 0 -- -- --
2019-06-13 15:00:00 22.7 9 Nordeste 21 Nordeste 0 -- -- --
2019-06-13 14:00:00 22 11 Nordeste 19 Nordeste 0 -- -- --
2019-06-13 13:00:00 22.1 10 Nordeste 19 Nordeste 0 -- -- --
2019-06-13 12:00:00 21.9 9 Nordeste 15 Nordeste 0 -- -- --
2019-06-13 11:00:00 -- 9 Nordeste 19 Nordeste 0 -- -- --
2019-06-13 10:00:00 -- 6 Nordeste 14 Nordeste 0 -- -- --
2019-06-13 09:00:00 20.9 5 Este 12 Este 0 -- -- --
2019-06-13 08:00:00 19.7 6 Este 17 Este 0 -- -- --
2019-06-13 07:00:00 19.6 5 Este 15 Este 0 -- -- --
2019-06-13 06:00:00 18.7 0 Calma 9 Sur 0 -- -- --
2019-06-13 05:00:00 19.3 5 Sur 12 Sudeste 0 -- -- --
2019-06-13 04:00:00 19.6 5 Sudeste 13 Sudeste 0 -- -- --
2019-06-13 03:00:00 20 8 Sudeste 23 Sudeste 0 -- -- --
2019-06-13 02:00:00 20 9 Sudeste 24 Este 0 -- -- --
2019-06-13 01:00:00 20.2 11 Sudeste 24 Sudeste 0 -- -- --
2019-06-13 00:00:00 20.4 6 Sudeste 19 Sur 0 -- -- --
2019-06-12 23:00:00 20.3 6 Sudeste 17 Sudeste 0 -- -- --
2019-06-12 22:00:00 20.5 8 Sudeste 24 Sudeste 0 -- -- --
2019-06-12 21:00:00 20 13 Sudeste 30 Este 0 -- -- --
2019-06-12 20:00:00 20.2 18 Este 30 Este 0 -- -- --
2019-06-12 19:00:00 20.4 15 Sudeste 27 Este 0 -- -- --
2019-06-12 18:00:00 20.6 13 Este 24 Este 0 -- -- --
2019-06-12 17:00:00 20.7 10 Este 18 Este 0 -- -- --
2019-06-12 16:00:00 20.8 9 Este 21 Este 0 -- -- --
2019-06-12 15:00:00 21.1 10 Este 21 Este 0 -- -- --
2019-06-12 14:00:00 20.3 8 Este 20 Este 0 -- -- --
2019-06-12 13:00:00 20.7 9 Nordeste 18 Nordeste 0 -- -- --
2019-06-12 12:00:00 20 10 Norte 18 Norte 0 -- -- --
2019-06-12 11:00:00 19.5 9 Norte 19 Norte 0 -- -- --
2019-06-12 10:00:00 19.2 7 Norte 13 Norte 0 -- -- --
2019-06-12 09:00:00 17.3 4 Noroeste 8 Oeste 0 -- -- --
2019-06-12 08:00:00 14.2 4 Oeste 8 Noroeste 0 -- -- --
2019-06-12 07:00:00 12.5 4 Oeste 8 Noroeste 0 -- -- --
2019-06-12 06:00:00 12.3 3 Oeste 6 Oeste 0 -- -- --
2019-06-12 05:00:00 12.4 5 Oeste 8 Noroeste 0 -- -- --
2019-06-12 04:00:00 12.6 5 Noroeste 7 Noroeste 0 -- -- --
2019-06-12 03:00:00 12.9 3 Oeste 8 Oeste 0 -- -- --
2019-06-12 02:00:00 13.3 0 Calma 7 Oeste 0 -- -- --
2019-06-12 01:00:00 14.5 4 Oeste 6 Noroeste 0 -- -- --
2019-06-12 00:00:00 16.6 0 Calma 13 Sudeste 0 -- -- --
2019-06-11 23:00:00 17.7 6 Este 17 Este 0 -- -- --
2019-06-11 22:00:00 17.9 6 Nordeste 21 Nordeste 0 -- -- --
2019-06-11 21:00:00 18.3 10 Nordeste 26 Nordeste 0 -- -- --
2019-06-11 20:00:00 18.4 11 Nordeste 26 Nordeste 0 -- -- --
2019-06-11 19:00:00 18.8 15 Nordeste 28 Nordeste 0 -- -- --
2019-06-11 18:00:00 18.9 13 Nordeste 40 Nordeste 0 -- -- --
2019-06-11 17:00:00 19.4 22 Nordeste 37 Este 0 -- -- --
2019-06-11 16:00:00 19.9 22 Nordeste 34 Nordeste 0 -- -- --
2019-06-11 15:00:00 20.1 19 Nordeste 32 Nordeste 0 -- -- --
2019-06-11 14:00:00 21.6 15 Nordeste 35 Nordeste 0 -- -- --
2019-06-11 13:00:00 22.1 13 Nordeste 35 Nordeste 0 -- -- --
2019-06-11 12:00:00 21.5 15 Norte 32 Norte 0 -- -- --
2019-06-11 11:00:00 23 14 Norte 27 Noroeste 0 -- -- --
2019-06-11 10:00:00 22.3 10 Norte 17 Norte 0 -- -- --
2019-06-11 09:00:00 21 6 Noroeste 13 Oeste 0 -- -- --
2019-06-11 08:00:00 19 6 Oeste 10 Noroeste 0 -- -- --
2019-06-11 07:00:00 17 4 Oeste 10 Noroeste 0 -- -- --
2019-06-11 06:00:00 16.8 5 Noroeste 8 Noroeste 0 -- -- --
2019-06-11 05:00:00 17.4 4 Oeste 10 Oeste 0 -- -- --
2019-06-11 04:00:00 17.7 6 Oeste 12 Oeste 0 -- -- --
2019-06-11 03:00:00 18.2 6 Oeste 16 Noroeste 0 -- -- --
2019-06-11 02:00:00 19.1 7 Noroeste 16 Noroeste 0 -- -- --
2019-06-11 01:00:00 19.3 5 Oeste 13 Noroeste 0 -- -- --
2019-06-11 00:00:00 20.3 6 Noroeste 26 Norte 0 -- -- --
2019-06-10 23:00:00 20.6 5 Oeste 15 Noroeste 0 -- -- --
2019-06-10 22:00:00 22 5 Noroeste 10 Noroeste 0 -- -- --
2019-06-10 21:00:00 24.1 4 Noroeste 13 Sur 0 -- -- --
2019-06-10 20:00:00 24.1 9 Sudeste 27 Sudeste 0 -- -- --
2019-06-10 19:00:00 22.5 14 Sudeste 37 Este 0 -- -- --
2019-06-10 18:00:00 22 20 Este 36 Este 0 -- -- --
2019-06-10 17:00:00 22.3 17 Este 30 Este 0 -- -- --
2019-06-10 16:00:00 22.7 15 Este 28 Este 0 -- -- --
2019-06-10 15:00:00 23 10 Este 18 Sudeste 0 -- -- --
2019-06-10 14:00:00 22.5 9 Nordeste 15 Este 0 -- -- --
2019-06-10 13:00:00 22.9 9 Nordeste 18 Nordeste 0 -- -- --
2019-06-10 12:00:00 22.9 9 Nordeste 16 Nordeste 0 -- -- --
2019-06-10 11:00:00 22.9 7 Norte 16 Norte 0 -- -- --
2019-06-10 10:00:00 21.6 8 Norte 12 Norte 0 -- -- --
2019-06-10 09:00:00 19.6 5 Noroeste 9 Noroeste 0 -- -- --
2019-06-10 08:00:00 16.5 3 Oeste 6 Noroeste 0 -- -- --
2019-06-10 07:00:00 14.8 0 Calma 5 Sur 0 -- -- --
2019-06-10 06:00:00 15.3 3 Sur 5 Sudeste 0 -- -- --
2019-06-10 05:00:00 15.2 0 Calma 5 Oeste 0 -- -- --
2019-06-10 04:00:00 16.3 0 Calma 6 Sur 0 -- -- --
2019-06-10 03:00:00 17.5 3 Sur 5 Sur 0 -- -- --
2019-06-10 02:00:00 18.9 0 Calma 7 Norte 0 -- -- --
2019-06-10 01:00:00 19.6 3 Noroeste 16 Noroeste 0 -- -- --
2019-06-10 00:00:00 20.1 9 Noroeste 25 Norte 0 -- -- --
2019-06-09 23:00:00 20.2 5 Noroeste 13 Noroeste 0 -- -- --
2019-06-09 22:00:00 20.9 9 Noroeste 18 Norte 0 -- -- --
2019-06-09 21:00:00 23 6 Noroeste 9 Noroeste 0 -- -- --
2019-06-09 20:00:00 23.8 0 Calma 13 Sudeste 0 -- -- --
2019-06-09 19:00:00 23.2 6 Este 15 Este 0 -- -- --
2019-06-09 18:00:00 23.1 8 Este 15 Este 0 -- -- --
2019-06-09 17:00:00 23.2 7 Este 16 Este 0 -- -- --
2019-06-09 16:00:00 22.7 7 Este 14 Este 0 -- -- --
2019-06-09 15:00:00 22.3 6 Este 9 Este 0 -- -- --
2019-06-09 14:00:00 22.4 4 Este 10 Nordeste 0 -- -- --
2019-06-09 13:00:00 22.4 5 Nordeste 14 Oeste 0 -- -- --
2019-06-09 12:00:00 23.1 10 Noroeste 15 Noroeste 0 -- -- --
2019-06-09 11:00:00 21.7 4 Oeste 17 Oeste 0 -- -- --
2019-06-09 10:00:00 20.4 5 Oeste 15 Noroeste 0 -- -- --
2019-06-09 09:00:00 19.3 4 Oeste 19 Oeste 0 -- -- --
2019-06-09 08:00:00 17.9 7 Oeste 21 Oeste 0 -- -- --
2019-06-09 07:00:00 17.1 7 Oeste 16 Oeste 0 -- -- --
2019-06-09 06:00:00 17 6 Oeste 20 Oeste 0 -- -- --
2019-06-09 05:00:00 16.8 10 Oeste 25 Oeste 0 -- -- --
2019-06-09 04:00:00 16.6 6 Oeste 13 Sudoeste 0 -- -- --
2019-06-09 03:00:00 16.7 6 Oeste 12 Oeste 0 -- -- --
2019-06-09 02:00:00 17.1 5 Oeste 9 Oeste 0 -- -- --
2019-06-09 01:00:00 17.9 4 Oeste 12 Noroeste 0 -- -- --
2019-06-09 00:00:00 18.6 6 Noroeste 15 Norte 0 -- -- --
2019-06-08 23:00:00 19.1 5 Norte 18 Noroeste 0 -- -- --
2019-06-08 22:00:00 19.3 5 Noroeste 16 Norte 0 -- -- --
2019-06-08 21:00:00 19.9 6 Norte 15 Norte 0 -- -- --
2019-06-08 20:00:00 20.5 8 Norte 16 Norte 0 -- -- --
2019-06-08 19:00:00 21.2 8 Norte 19 Norte 0 -- -- --
2019-06-08 18:00:00 21.8 10 Norte 18 Nordeste 0 -- -- --
2019-06-08 17:00:00 22 9 Norte 20 Norte 0 -- -- --
2019-06-08 16:00:00 22.8 8 Nordeste 20 Nordeste 0 -- -- --
2019-06-08 15:00:00 22.3 9 Nordeste 21 Nordeste 0 -- -- --
2019-06-08 14:00:00 22.7 10 Nordeste 25 Nordeste 0 -- -- --
2019-06-08 13:00:00 22.3 10 Nordeste 22 Nordeste 0 -- -- --
2019-06-08 12:00:00 22.3 9 Nordeste 21 Nordeste 0 -- -- --
2019-06-08 11:00:00 22.4 10 Nordeste 24 Nordeste 0 -- -- --
2019-06-08 10:00:00 21.6 9 Norte 19 Nordeste 0 -- -- --
2019-06-08 09:00:00 20.8 9 Norte 15 Norte 0 -- -- --
2019-06-08 08:00:00 20.6 5 Norte 13 Nordeste 0 -- -- --
2019-06-08 07:00:00 19.3 5 Nordeste 12 Nordeste 0 -- -- --
2019-06-08 06:00:00 17.5 6 Oeste 18 Oeste 0 -- -- --
2019-06-08 05:00:00 17.3 6 Oeste 14 Noroeste 0 -- -- --
2019-06-08 04:00:00 17.8 5 Noroeste 11 Noroeste 0 -- -- --
2019-06-08 03:00:00 18.1 5 Oeste 10 Oeste 0 -- -- --
2019-06-08 02:00:00 19.7 0 Calma 28 Nordeste 0 -- -- --
2019-06-08 01:00:00 20.8 13 Nordeste 23 Este 0 -- -- --
2019-06-08 00:00:00 19.3 0 Calma -- -- 0 -- -- --
2019-06-07 23:00:00 21.2 0 Calma 8 Sur 0 -- -- --
2019-06-07 22:00:00 22.8 4 Sur 13 Sudeste 0 -- -- --
2019-06-07 21:00:00 25.5 8 Sur 22 Sudeste 0 -- -- --
2019-06-07 20:00:00 25.5 9 Sudeste 18 Sudeste 0 -- -- --
2019-06-07 19:00:00 25 7 Sudeste 19 Sudeste 0 -- -- --
2019-06-07 18:00:00 25.5 14 Sudeste 24 Este 0 -- -- --
2019-06-07 17:00:00 24.8 13 Este 26 Este 0 -- -- --
2019-06-07 16:00:00 25 11 Sudeste 26 Sudeste 0 -- -- --
2019-06-07 15:00:00 24.6 12 Sudeste 25 Este 0 -- -- --
2019-06-07 14:00:00 24 12 Este 22 Este 0 -- -- --
2019-06-07 13:00:00 23.1 11 Este 24 Este 0 -- -- --
2019-06-07 12:00:00 22.5 10 Sudeste 20 Sudeste 0 -- -- --
2019-06-07 11:00:00 21.7 9 Este 17 Este 0 -- -- --
2019-06-07 10:00:00 21.7 8 Sudeste 15 Sudeste 0 -- -- --
2019-06-07 09:00:00 21.1 0 Calma 6 Sudeste 0 -- -- --
2019-06-07 08:00:00 18.2 0 Calma 7 Sur 0 -- -- --
2019-06-07 07:00:00 15.9 0 Calma 12 Noroeste 0 -- -- --
2019-06-07 06:00:00 16.6 0 Calma 13 Oeste 0 -- -- --
2019-06-07 05:00:00 16.9 4 Oeste 13 Oeste 0 -- -- --
2019-06-07 04:00:00 16.8 5 Oeste 10 Noroeste 0 -- -- --
2019-06-07 03:00:00 17.6 5 Oeste 15 Oeste 0 -- -- --
2019-06-07 02:00:00 18.3 5 Oeste 16 Oeste 0 -- -- --
2019-06-07 01:00:00 18.1 3 Sudoeste 19 Oeste 0 -- -- --
2019-06-07 00:00:00 18.5 2 Este 5 Sudeste 0 -- -- --
2019-06-06 23:00:00 19.2 2 Sur 17 Sur 0 -- -- --
2019-06-06 22:00:00 20.8 10 Sur 31 Sudeste 0 -- -- --
2019-06-06 21:00:00 22.1 12 Sudeste 29 Sur 0 -- -- --
2019-06-06 20:00:00 22.4 18 Este 41 Este 0 -- -- --
2019-06-06 19:00:00 21.6 24 Este 43 Este 0 -- -- --
2019-06-06 18:00:00 22.6 18 Sudeste 39 Sudeste 0 -- -- --
2019-06-06 17:00:00 23 19 Sudeste 36 Sudeste 0 -- -- --
2019-06-06 16:00:00 22.6 22 Este 37 Sudeste 0 -- -- --
2019-06-06 15:00:00 22.5 18 Este 31 Este 0 -- -- --
2019-06-06 14:00:00 22.7 9 Este 20 Este 0 -- -- --
2019-06-06 13:00:00 21.8 10 Nordeste 17 Nordeste 0 -- -- --
2019-06-06 12:00:00 21.9 8 Nordeste 13 Nordeste 0 -- -- --
2019-06-06 11:00:00 21.7 4 Nordeste 13 Nordeste 0 -- -- --
2019-06-06 10:00:00 20.6 7 Norte 14 Nordeste 0 -- -- --
2019-06-06 09:00:00 20.2 3 Noroeste 7 Oeste 0 -- -- --
2019-06-06 08:00:00 16.7 2 Oeste 4 Sur 0 -- -- --
2019-06-06 07:00:00 13.3 4 Oeste 10 Noroeste 0 -- -- --
2019-06-06 06:00:00 14.3 2 Sur 12 Noroeste 0 -- -- --
2019-06-06 05:00:00 14 0 Calma 11 Noroeste 0 -- -- --
2019-06-06 04:00:00 14.6 0 Calma 8 Oeste 0 -- -- --
2019-06-06 03:00:00 15.7 0 Calma 3 Oeste 0 -- -- --
2019-06-06 02:00:00 16.6 0 Calma 6 Sur 0 -- -- --
2019-06-06 01:00:00 18 0 Calma 3 Oeste 0 -- -- --
2019-06-06 00:00:00 18.9 0 Calma 17 Sudeste 0 -- -- --
2019-06-05 23:00:00 20.4 8 Sudeste 17 Sur 0 -- -- --
2019-06-05 22:00:00 20.7 8 Sudeste 18 Este 0 -- -- --
2019-06-05 21:00:00 21.4 7 Sudeste 21 Este 0 -- -- --
2019-06-05 20:00:00 22.7 6 Este 27 Oeste 0 -- -- --
2019-06-05 19:00:00 28.5 10 Oeste 32 Noroeste 0 -- -- --
2019-06-05 18:00:00 28.7 17 Noroeste 34 Noroeste 0 -- -- --
2019-06-05 17:00:00 29 12 Oeste 48 Oeste 0 -- -- --
2019-06-05 16:00:00 28 17 Oeste 44 Noroeste 0 -- -- --
2019-06-05 15:00:00 28.3 19 Noroeste 44 Noroeste 0 -- -- --
2019-06-05 14:00:00 28 16 Noroeste 46 Oeste 0 -- -- --
2019-06-05 13:00:00 27.3 20 Oeste 51 Oeste 0 -- -- --
2019-06-05 12:00:00 27.1 22 Oeste 55 Oeste 0 -- -- --
2019-06-05 11:00:00 26.2 19 Oeste 45 Noroeste 0 -- -- --
2019-06-05 10:00:00 22 5 Nordeste 8 Nordeste 0 -- -- --
2019-06-05 09:00:00 20.8 2 Norte 6 Norte 0 -- -- --
2019-06-05 08:00:00 18.3 0 Calma 3 Sur 0 -- -- --
2019-06-05 07:00:00 16.2 0 Calma 5 Oeste 0 -- -- --
2019-06-05 06:00:00 17.1 0 Calma 4 Sur 0 -- -- --
2019-06-05 05:00:00 17.3 2 Sur 5 Sur 0 -- -- --
2019-06-05 04:00:00 17.5 0 Calma 4 Sudoeste 0 -- -- --
2019-06-05 03:00:00 18.4 3 Sur 6 Sur 0 -- -- --
2019-06-05 02:00:00 18.6 0 Calma 6 Sur 0 -- -- --
2019-06-05 01:00:00 19.2 0 Calma 7 Sur 0 -- -- --
2019-06-05 00:00:00 20.1 0 Calma 7 Norte 0 -- -- --
2019-06-04 23:00:00 20.7 0 Calma 13 Norte 0 -- -- --
2019-06-04 22:00:00 21.2 7 Norte 51 Norte 0 -- -- --
2019-06-04 21:00:00 22 13 Norte 27 Norte 0 -- -- --
2019-06-04 20:00:00 29.4 13 Sur 28 Sur 0 -- -- --
2019-06-04 19:00:00 27.4 16 Sudeste 32 Este 0 -- -- --
2019-06-04 18:00:00 29.2 4 Nordeste 22 Sudeste 0 -- -- --
2019-06-04 17:00:00 26.9 8 Norte 19 Norte 0 -- -- --
2019-06-04 16:00:00 25 6 Norte 13 Nordeste 0 -- -- --
2019-06-04 15:00:00 24.2 4 Nordeste 10 Nordeste 0 -- -- --
2019-06-04 14:00:00 22.7 6 Este 14 Sudeste 0 -- -- --
2019-06-04 13:00:00 21.8 8 Este 12 Este 0 -- -- --
2019-06-04 12:00:00 21.9 8 Nordeste 12 Norte 0 -- -- --
2019-06-04 11:00:00 21.7 5 Norte 11 Nordeste 0 -- -- --
2019-06-04 10:00:00 21.2 4 Nordeste 8 Este 0 -- -- --
2019-06-04 09:00:00 20.9 0 Calma 6 Sudeste 0 -- -- --
2019-06-04 08:00:00 17.4 2 Oeste 5 Oeste 0 -- -- --
2019-06-04 07:00:00 15.6 0 Calma 4 Oeste 0 -- -- --
2019-06-04 06:00:00 16.1 0 Calma 5 Sur 0 -- -- --
2019-06-04 05:00:00 16.6 0 Calma 5 Sur 0 -- -- --
2019-06-04 04:00:00 17.7 2 Sur 5 Sudeste 0 -- -- --
2019-06-04 03:00:00 18.4 3 Sur 9 Sudeste 0 -- -- --
2019-06-04 02:00:00 19.4 3 Sudeste 8 Sudeste 0 -- -- --
2019-06-04 01:00:00 19.2 0 Calma 6 Sudoeste 0 -- -- --
2019-06-04 00:00:00 19.9 2 Sur 10 Sur 0 -- -- --
2019-06-03 23:00:00 20.6 2 Sur 22 Noroeste 0 -- -- --
2019-06-03 22:00:00 20.9 11 Norte 26 Norte 0 -- -- --
2019-06-03 21:00:00 22.5 13 Noroeste 28 Noroeste 0 -- -- --
2019-06-03 20:00:00 27 2 Sudeste 17 Sudeste 0 -- -- --
2019-06-03 19:00:00 27.2 10 Sudeste 25 Sudeste 0 -- -- --
2019-06-03 18:00:00 28.2 12 Sudeste 30 Sudeste 0 -- -- --
2019-06-03 17:00:00 29.6 14 Sudeste 28 Sudeste 0 -- -- --
2019-06-03 16:00:00 28.6 14 Sudeste 29 Sudeste 0 -- -- --
2019-06-03 15:00:00 29 11 Sudeste 24 Sudeste 0 -- -- --
2019-06-03 14:00:00 28 9 Sudeste 22 Este 0 -- -- --
2019-06-03 13:00:00 25.2 5 Nordeste 13 Nordeste 0 -- -- --
2019-06-03 12:00:00 22.6 4 Norte 24 Nordeste 0 -- -- --
2019-06-03 11:00:00 21.6 7 Este 15 Este 0 -- -- --
2019-06-03 10:00:00 21.4 6 Sudeste 16 Este 0 -- -- --
2019-06-03 09:00:00 21.2 4 Este 7 Este 0 -- -- --
2019-06-03 08:00:00 17.9 0 Calma 8 Noroeste 0 -- -- --
2019-06-03 07:00:00 14.7 5 Oeste 9 Oeste 0 -- -- --
2019-06-03 06:00:00 15 5 Noroeste 8 Noroeste 0 -- -- --
2019-06-03 05:00:00 14.9 2 Oeste 5 Sudeste 0 -- -- --
2019-06-03 04:00:00 16.9 2 Sur 6 Sudeste 0 -- -- --
2019-06-03 03:00:00 17 0 Calma 8 Sur 0 -- -- --
2019-06-03 02:00:00 17.9 3 Sur 6 Sur 0 -- -- --
2019-06-03 01:00:00 19.4 0 Calma 17 Nordeste 0 -- -- --
2019-06-03 00:00:00 20.4 7 Norte 15 Norte 0 -- -- --
2019-06-02 23:00:00 20.4 0 Calma 9 Sur 0 -- -- --
2019-06-02 22:00:00 23.3 5 Sur 13 Sur 0 -- -- --
2019-06-02 21:00:00 25.5 8 Sudeste 24 Sudeste 0 -- -- --
2019-06-02 20:00:00 27.5 9 Sur 25 Sudeste 0 -- -- --
2019-06-02 19:00:00 28 10 Sudeste 26 Sudeste 0 -- -- --
2019-06-02 18:00:00 27.5 13 Sudeste 28 Sudeste 0 -- -- --
2019-06-02 17:00:00 25.1 13 Sudeste 30 Este 0 -- -- --
2019-06-02 16:00:00 23.1 16 Este 32 Este 0 -- -- --
2019-06-02 15:00:00 23.1 15 Este 31 Sudeste 0 -- -- --
2019-06-02 14:00:00 22.5 18 Este 31 Este 0 -- -- --
2019-06-02 13:00:00 22.7 14 Este 25 Este 0 -- -- --
2019-06-02 12:00:00 21.7 10 Este 20 Este 0 -- -- --
2019-06-02 11:00:00 21.1 7 Este 16 Este 0 -- -- --
2019-06-02 10:00:00 21.2 6 Sudeste 11 Sudeste 0 -- -- --
2019-06-02 09:00:00 20.5 3 Este 5 Este 0 -- -- --
2019-06-02 08:00:00 15.7 0 Calma -- -- 0 -- -- --
2019-06-02 07:00:00 12 0 Calma -- -- 0 -- -- --
2019-06-02 06:00:00 12.5 0 Calma 3 Oeste 0 -- -- --
2019-06-02 05:00:00 14.8 0 Calma 8 Noroeste 0 -- -- --
2019-06-02 04:00:00 15 3 Oeste 13 Oeste 0 -- -- --
2019-06-02 03:00:00 14.9 0 Calma 7 Noroeste 0 -- -- --
2019-06-02 02:00:00 14.8 0 Calma 4 Noroeste 0 -- -- --
2019-06-02 01:00:00 16.5 0 Calma 4 Noroeste 0 -- -- --
2019-06-02 00:00:00 17.4 0 Calma 5 Sur 0 -- -- --
2019-06-01 23:00:00 19.3 2 Sur 13 Sudeste 0 -- -- --
2019-06-01 22:00:00 22.2 7 Sudeste 19 Sudeste 0 -- -- --
2019-06-01 21:00:00 23.2 11 Sudeste 22 Sudeste 0 -- -- --
2019-06-01 20:00:00 24.4 13 Sudeste 24 Sudeste 0 -- -- --
2019-06-01 19:00:00 24.2 10 Sudeste 24 Sudeste 0 -- -- --
2019-06-01 18:00:00 23 12 Sudeste 28 Este 0 -- -- --
2019-06-01 17:00:00 22.7 14 Este 28 Este 0 -- -- --
2019-06-01 16:00:00 22.7 15 Este 32 Este 0 -- -- --
2019-06-01 15:00:00 22.4 16 Este 35 Sudeste 0 -- -- --
2019-06-01 14:00:00 21.9 15 Este 30 Este 0 -- -- --
2019-06-01 13:00:00 21.9 8 Este 16 Este 0 -- -- --
2019-06-01 12:00:00 21 11 Este 17 Este 0 -- -- --
2019-06-01 11:00:00 20.4 9 Este 17 Este 0 -- -- --
2019-06-01 10:00:00 20 8 Este 12 Sudeste 0 -- -- --
2019-06-01 09:00:00 20.6 3 Este 5 Sur 0 -- -- --
2019-06-01 08:00:00 17.1 0 Calma 5 Noroeste 0 -- -- --
2019-06-01 07:00:00 13.8 3 Oeste 6 Oeste 0 -- -- --
2019-06-01 06:00:00 14 0 Calma 7 Oeste 0 -- -- --
2019-06-01 05:00:00 14.7 4 Oeste 10 Noroeste 0 -- -- --
2019-06-01 04:00:00 14.2 0 Calma 9 Noroeste 0 -- -- --
2019-06-01 03:00:00 15.4 4 Oeste 9 Noroeste 0 -- -- --
2019-06-01 02:00:00 16.3 3 Oeste 10 Sudeste 0 -- -- --
2019-06-01 01:00:00 19.8 6 Sudeste 17 Sudeste 0 -- -- --
2019-06-01 00:00:00 20 8 Sudeste 16 Este 0 -- -- --
2019-05-31 23:00:00 21.5 6 Sudeste 15 Sudeste 0 -- -- --
2019-05-31 22:00:00 22.3 7 Sudeste 17 Sudeste 0 -- -- --
2019-05-31 21:00:00 23.4 9 Sudeste 24 Sudeste 0 -- -- --
2019-05-31 20:00:00 24.2 13 Sudeste 29 Sudeste 0 -- -- --
2019-05-31 19:00:00 24.7 12 Sudeste 26 Sudeste 0 -- -- --
2019-05-31 18:00:00 23.8 13 Este 29 Sudeste 0 -- -- --
2019-05-31 17:00:00 23.3 17 Este 30 Este 0 -- -- --
2019-05-31 16:00:00 23 17 Este 34 Este 0 -- -- --
2019-05-31 15:00:00 22.7 17 Este 33 Este 0 -- -- --
2019-05-31 14:00:00 21.8 15 Este 30 Este 0 -- -- --
2019-05-31 13:00:00 21.6 10 Este 19 Sudeste 0 -- -- --
2019-05-31 12:00:00 21.2 9 Este 15 Este 0 -- -- --
2019-05-31 11:00:00 21.3 8 Nordeste 13 Nordeste 0 -- -- --
2019-05-31 10:00:00 21 6 Nordeste 12 Nordeste 0 -- -- --
2019-05-31 09:00:00 21.1 0 Calma 5 Nordeste 0 -- -- --
2019-05-31 08:00:00 16.4 0 Calma 5 Oeste 0 -- -- --
2019-05-31 07:00:00 12.6 0 Calma 4 Oeste 0 -- -- --
2019-05-31 06:00:00 13.6 0 Calma 5 Sur 0 -- -- --
2019-05-31 05:00:00 13.4 0 Calma 4 Sur 0 -- -- --
2019-05-31 04:00:00 13.7 0 Calma 4 Oeste 0 -- -- --
2019-05-31 03:00:00 14.4 0 Calma 6 Sur 0 -- -- --
2019-05-31 02:00:00 16.2 4 Sur 6 Noroeste 0 -- -- --
2019-05-31 01:00:00 15.3 2 Oeste 5 Oeste 0 -- -- --
2019-05-31 00:00:00 16.7 0 Calma 4 Sur 0 -- -- --
2019-05-30 23:00:00 18.4 0 Calma 9 Sur 0 -- -- --
2019-05-30 22:00:00 20.5 4 Sur 20 Sudeste 0 -- -- --
2019-05-30 21:00:00 22 11 Sudeste 20 Sudeste 0 -- -- --
2019-05-30 20:00:00 23.4 10 Sudeste 21 Sur 0 -- -- --
2019-05-30 19:00:00 24.2 13 Sudeste 29 Sudeste 0 -- -- --
2019-05-30 18:00:00 24.2 16 Sudeste 30 Sudeste 0 -- -- --
2019-05-30 17:00:00 24.9 12 Sudeste 24 Sudeste 0 -- -- --
2019-05-30 16:00:00 24.6 12 Sudeste 24 Este 0 -- -- --
2019-05-30 15:00:00 22.9 13 Este 30 Este 0 -- -- --
2019-05-30 14:00:00 22.6 14 Este 25 Este 0 -- -- --
2019-05-30 13:00:00 21.6 9 Este 17 Este 0 -- -- --
2019-05-30 12:00:00 20.8 10 Nordeste 15 Nordeste 0 -- -- --
2019-05-30 11:00:00 20.3 8 Nordeste 13 Nordeste 0 -- -- --
2019-05-30 10:00:00 20.2 4 Este 7 Este 0 -- -- --
2019-05-30 09:00:00 19.8 0 Calma 5 Noroeste 0 -- -- --
2019-05-30 08:00:00 14.8 3 Oeste 6 Oeste 0 -- -- --
2019-05-30 07:00:00 11.2 0 Calma 4 Sur 0 -- -- --
2019-05-30 06:00:00 11.7 0 Calma 5 Sur 0 -- -- --
2019-05-30 05:00:00 11.9 2 Sur 4 Sur 0 -- -- --
2019-05-30 04:00:00 12.5 0 Calma 7 Noroeste 0 -- -- --
2019-05-30 03:00:00 13.3 5 Oeste 9 Noroeste 0 -- -- --
2019-05-30 02:00:00 13.3 2 Noroeste 6 Noroeste 0 -- -- --
2019-05-30 01:00:00 13.7 0 Calma 3 Sur 0 -- -- --
2019-05-30 00:00:00 15.4 2 Sur 7 Sur 0 -- -- --
2019-05-29 23:00:00 16.6 3 Sur 7 Sudeste 0 -- -- --
2019-05-29 22:00:00 19 2 Sur 14 Sudeste 0 -- -- --
2019-05-29 21:00:00 20.3 8 Sudeste 18 Este 0 -- -- --
2019-05-29 20:00:00 20.6 10 Este 21 Este 0 -- -- --
2019-05-29 19:00:00 20.4 12 Sudeste 23 Este 0 -- -- --
2019-05-29 18:00:00 21 10 Sudeste 21 Sudeste 0 -- -- --
2019-05-29 17:00:00 20.9 10 Sudeste 19 Este 0 -- -- --
2019-05-29 16:00:00 20.9 9 Sudeste 16 Este 0 -- -- --
2019-05-29 15:00:00 20.6 8 Este 15 Este 0 -- -- --
2019-05-29 14:00:00 21.2 7 Este 16 Nordeste 0 -- -- --
2019-05-29 13:00:00 20.9 7 Nordeste 14 Este 0 -- -- --
2019-05-29 12:00:00 20.7 8 Nordeste 16 Nordeste 0 -- -- --
2019-05-29 11:00:00 20.4 7 Nordeste 19 Norte 0 -- -- --
2019-05-29 10:00:00 19.8 9 Nordeste 20 Norte 0 -- -- --
2019-05-29 09:00:00 18.4 6 Noroeste 13 Norte 0 -- -- --
2019-05-29 08:00:00 15.2 5 Noroeste 18 Norte 0 -- -- --
2019-05-29 07:00:00 13.2 0 Calma 8 Oeste 0 -- -- --
2019-05-29 06:00:00 12.7 4 Oeste 7 Oeste 0 -- -- --
2019-05-29 05:00:00 13.2 2 Sur 7 Sur 0 -- -- --
2019-05-29 04:00:00 14 2 Oeste 7 Noroeste 0 -- -- --
2019-05-29 03:00:00 14.6 4 Oeste 9 Oeste 0 -- -- --
2019-05-29 02:00:00 15.2 4 Noroeste 9 Oeste 0 -- -- --
2019-05-29 01:00:00 15.5 5 Noroeste 9 Noroeste 0 -- -- --
2019-05-29 00:00:00 16.2 5 Oeste 10 Sudeste 0 -- -- --
2019-05-28 23:00:00 19.3 5 Sudeste 18 Este 0 -- -- --
2019-05-28 22:00:00 19.8 8 Sudeste 19 Sudeste 0 -- -- --
2019-05-28 21:00:00 20.5 8 Sudeste 20 Sudeste 0 -- -- --
2019-05-28 20:00:00 20.6 10 Sudeste 25 Este 0 -- -- --
2019-05-28 19:00:00 20.5 12 Este 30 Este 0 -- -- --
2019-05-28 18:00:00 20.4 16 Este 30 Este 0 -- -- --
2019-05-28 17:00:00 21 16 Este 27 Este 0 -- -- --
2019-05-28 16:00:00 21.5 12 Este 21 Sudeste 0 -- -- --
2019-05-28 15:00:00 20.7 12 Este 19 Este 0 -- -- --
2019-05-28 14:00:00 20.8 10 Este 18 Este 0 -- -- --
2019-05-28 13:00:00 21.6 9 Este 18 Este 0 -- -- --
2019-05-28 12:00:00 21.5 8 Este 15 Sudeste 0 -- -- --
2019-05-28 11:00:00 20.7 8 Nordeste 21 Este 0 -- -- --
2019-05-28 10:00:00 20.5 10 Nordeste 19 Nordeste 0 -- -- --
2019-05-28 09:00:00 20.3 4 Norte 7 Norte 0 -- -- --
2019-05-28 08:00:00 17.5 2 Oeste 9 Noroeste 0 -- -- --
2019-05-28 07:00:00 15.1 2 Noroeste 7 Oeste 0 -- -- --
2019-05-28 06:00:00 15.1 3 Oeste 6 Noroeste 0 -- -- --
2019-05-28 05:00:00 15.6 2 Oeste 5 Oeste 0 -- -- --
2019-05-28 04:00:00 16.1 0 Calma 6 Oeste 0 -- -- --
2019-05-28 03:00:00 16.9 3 Noroeste 5 Oeste 0 -- -- --
2019-05-28 02:00:00 18 2 Oeste 20 Norte 0 -- -- --
2019-05-28 01:00:00 18.9 9 Noroeste 23 Norte 0 -- -- --
2019-05-28 00:00:00 19.3 7 Noroeste 18 Noroeste 0 -- -- --
2019-05-27 23:00:00 20 7 Noroeste 14 Noroeste 0 -- -- --
2019-05-27 22:00:00 21.3 5 Noroeste 10 Noroeste 0 -- -- --
2019-05-27 21:00:00 23.6 3 Sudeste 16 Sudeste 0 -- -- --
2019-05-27 20:00:00 23.7 8 Sudeste 20 Sudeste 0 -- -- --
2019-05-27 19:00:00 24.6 11 Sudeste 23 Sudeste 0 -- -- --
2019-05-27 18:00:00 25.9 9 Sudeste 24 Sudeste 0 -- -- --
2019-05-27 17:00:00 24.7 10 Este 23 Este 0 -- -- --
2019-05-27 16:00:00 22.5 13 Este 24 Este 0 -- -- --
2019-05-27 15:00:00 22.3 8 Este 19 Este 0 -- -- --
2019-05-27 14:00:00 22.3 9 Este 18 Este 0 -- -- --
2019-05-27 13:00:00 21.7 9 Este 18 Este 0 -- -- --
2019-05-27 12:00:00 21.6 8 Este 15 Este 0 -- -- --
2019-05-27 11:00:00 21.6 7 Este 12 Este 0 -- -- --
2019-05-27 10:00:00 21.4 7 Este 12 Este 0 -- -- --
2019-05-27 09:00:00 20.6 0 Calma 7 Oeste 0 -- -- --
2019-05-27 08:00:00 15.5 0 Calma 4 Sudoeste 0 -- -- --
2019-05-27 07:00:00 12.4 0 Calma 3 Sudoeste 0 -- -- --
2019-05-27 06:00:00 13.1 0 Calma 3 Sur 0 -- -- --
2019-05-27 05:00:00 13.5 3 Sur 4 Sur 0 -- -- --
2019-05-27 04:00:00 14.3 0 Calma 6 Noroeste 0 -- -- --
2019-05-27 03:00:00 14.3 4 Noroeste 6 Noroeste 0 -- -- --
2019-05-27 02:00:00 15.5 0 Calma 7 Norte 0 -- -- --
2019-05-27 01:00:00 15.8 4 Noroeste 7 Noroeste 0 -- -- --
2019-05-27 00:00:00 16.6 0 Calma 3 Oeste 0 -- -- --
2019-05-26 23:00:00 17.7 0 Calma 5 Este 0 -- -- --
2019-05-26 22:00:00 18.6 0 Calma 6 Nordeste 0 -- -- --
2019-05-26 21:00:00 19.9 4 Este 14 Este 0 -- -- --
2019-05-26 20:00:00 20.1 8 Este 21 Este 0 -- -- --
2019-05-26 19:00:00 20.3 11 Este 24 Sudeste 0 -- -- --
2019-05-26 18:00:00 21 12 Sudeste 23 Sudeste 0 -- -- --
2019-05-26 17:00:00 19.9 13 Sudeste 24 Este 0 -- -- --
2019-05-26 16:00:00 20.3 12 Este 23 Este 0 -- -- --
2019-05-26 15:00:00 20.9 13 Este 22 Este 0 -- -- --
2019-05-26 14:00:00 20.4 11 Este 22 Este 0 -- -- --
2019-05-26 13:00:00 20.6 10 Este 19 Este 0 -- -- --
2019-05-26 12:00:00 20.3 9 Este 15 Este 0 -- -- --
2019-05-26 11:00:00 20.7 6 Nordeste 15 Nordeste 0 -- -- --
2019-05-26 10:00:00 19.8 5 Norte 10 Norte 0 -- -- --
2019-05-26 09:00:00 19.4 5 Norte 10 Norte 0 -- -- --
2019-05-26 08:00:00 16.1 7 Noroeste 11 Noroeste 0 -- -- --
2019-05-26 07:00:00 12.9 6 Noroeste 9 Noroeste 0 -- -- --
2019-05-26 06:00:00 12.7 0 Calma 7 Oeste 0 -- -- --
2019-05-26 05:00:00 12.7 4 Oeste 8 Noroeste 0 -- -- --
2019-05-26 04:00:00 12.8 0 Calma 6 Noroeste 0 -- -- --
2019-05-26 03:00:00 13.3 0 Calma 5 Sur 0 -- -- --
2019-05-26 02:00:00 13.9 2 Sur 5 Sur 0 -- -- --
2019-05-26 01:00:00 14.7 3 Sur 5 Sur 0 -- -- --
2019-05-26 00:00:00 15.4 0 Calma 5 Sur 0 -- -- --
2019-05-25 23:00:00 16.2 3 Sur 6 Sur 0 -- -- --
2019-05-25 22:00:00 17.4 3 Sur 8 Sudeste 0 -- -- --
2019-05-25 21:00:00 19.4 0 Calma 12 Este 0 -- -- --
2019-05-25 20:00:00 20.3 5 Este 11 Este 0 -- -- --
2019-05-25 19:00:00 20.8 3 Sur 9 Sudeste 0 -- -- --
2019-05-25 18:00:00 20.3 5 Este 14 Nordeste 0 -- -- --
2019-05-25 17:00:00 21 5 Norte 15 Norte 0 -- -- --
2019-05-25 16:00:00 20.3 6 Norte 14 Nordeste 0 -- -- --
2019-05-25 15:00:00 19.7 7 Norte 15 Norte 0 -- -- --
2019-05-25 14:00:00 17.5 7 Noroeste 13 Norte 0 -- -- --
2019-05-25 13:00:00 16.8 9 Noroeste 25 Norte 0 -- -- --
2019-05-25 12:00:00 16.4 12 Norte 31 Norte 0.3 -- -- --
2019-05-25 11:00:00 17.2 15 Norte 27 Norte 0 -- -- --
2019-05-25 10:00:00 16.9 12 Norte 25 Norte 0.1 -- -- --
2019-05-25 09:00:00 16.4 10 Norte 23 Nordeste 0.1 -- -- --
2019-05-25 08:00:00 16.6 10 Nordeste 27 Norte 0.2 -- -- --
2019-05-25 07:00:00 15.4 0 Calma 0 Calma 0.1 -- -- --
2019-05-25 06:00:00 15.2 0 Calma 9 Noroeste 0.3 -- -- --
2019-05-25 05:00:00 15.4 5 Noroeste 13 Noroeste 0.3 -- -- --
2019-05-25 04:00:00 15.8 5 Oeste 10 Oeste 0 -- -- --
2019-05-25 03:00:00 15.7 5 Oeste 10 Oeste 0 -- -- --
2019-05-25 02:00:00 15.9 5 Noroeste 8 Noroeste 0 -- -- --
2019-05-25 01:00:00 15.9 5 Noroeste 10 Noroeste 0 -- -- --
2019-05-25 00:00:00 16.1 5 Noroeste 8 Noroeste 0 -- -- --